Change the Weather History Date:

Saturday, September 14, 2013

  Actual Average Record
Temperature  
Mean Temperature 66 °F -  
Max Temperature 81 °F 77 °F 95 °F (1955)
Min Temperature 50 °F 56 °F 37 °F (1974)
Growing Degree Days 16 (Base 50)    
Moisture  
Dew Point 49 °F    
Average Humidity 57    
Maximum Humidity 86    
Minimum Humidity 33    
Precipitation  
Precipitation 0.00 in - - ()
Sea Level Pressure  
Sea Level Pressure 30.01 in    
Wind  
Wind Speed 6 mph (SE)    
Max Wind Speed 13 mph    
Max Gust Speed 22 mph    
Visibility 10 miles    
Events      
Averages and records for this station are not official NWS values.
T = Trace of Precipitation, MM = Missing Value Source: NWS Daily Summary

Daily Weather History Graph

Daily Weather History Graph

Search for Another Location

Airport or City:

Trip Planner

Search our weather history database for the weather conditions in past years. The results will help you decide how hot, cold, wet, or windy it might be!

Date:

Astronomy

Sep. 14, 2013 Rise Set
Actual Time 7:03 AM CDT 7:32 PM CDT
Civil Twilight 6:36 AM CDT 7:58 PM CDT
Nautical Twilight 6:05 AM CDT 8:30 PM CDT
Astronomical Twilight 5:32 AM CDT 9:02 PM CDT
Moon 4:12 PM CDT (9/14) 1:38 AM CDT (9/14)
Length of Visible Light 13h 22m
Length of Day
12h 28m
Waxing Gibbous, 72% of the Moon is Illuminated
Sep 14
Waxing Gibbous
Sep 19
Full
Sep 26
Last Quarter
Oct 4
New
Oct 11
First Quarter

Hourly Weather History & Observations

Time (CDT) Temp. Dew Point Humidity Pressure Visibility Wind Dir Wind Speed Gust Speed Precip Events Conditions
12:53 AM 54.0 °F 48.0 °F 80% 30.07 in 10.0 mi Calm Calm - N/A   Clear
1:53 AM 52.0 °F 46.0 °F 80% 30.07 in 10.0 mi Calm Calm - N/A   Clear
2:53 AM 50.0 °F 46.0 °F 86% 30.06 in 10.0 mi East 3.5 mph - N/A   Clear
3:53 AM 53.1 °F 46.9 °F 80% 30.06 in 10.0 mi SE 3.5 mph - N/A   Clear
4:53 AM 51.1 °F 46.0 °F 83% 30.06 in 10.0 mi SE 3.5 mph - N/A   Clear
5:53 AM 51.1 °F 46.0 °F 83% 30.07 in 10.0 mi SE 3.5 mph - N/A   Clear
6:53 AM 51.1 °F 46.0 °F 83% 30.07 in 10.0 mi ESE 3.5 mph - N/A   Clear
7:53 AM 55.0 °F 48.0 °F 77% 30.08 in 10.0 mi SE 5.8 mph - N/A   Clear
8:53 AM 60.1 °F 48.9 °F 67% 30.09 in 10.0 mi SE 10.4 mph - N/A   Clear
9:53 AM 66.9 °F 50.0 °F 54% 30.08 in 10.0 mi SSE 11.5 mph - N/A   Clear
10:53 AM 70.0 °F 52.0 °F 53% 30.08 in 10.0 mi SSE 10.4 mph - N/A   Clear
11:53 AM 73.9 °F 52.0 °F 46% 30.06 in 10.0 mi South 12.7 mph - N/A   Clear
12:53 PM 77.0 °F 52.0 °F 42% 30.04 in 10.0 mi SSE 11.5 mph 19.6 mph N/A   Clear
1:53 PM 79.0 °F 50.0 °F 36% 30.01 in 10.0 mi South 12.7 mph - N/A   Clear
2:53 PM 81.0 °F 48.9 °F 33% 29.99 in 10.0 mi South 8.1 mph 21.9 mph N/A   Clear
3:53 PM 80.1 °F 50.0 °F 35% 29.97 in 10.0 mi South 11.5 mph - N/A   Clear
4:53 PM 79.0 °F 50.0 °F 36% 29.95 in 10.0 mi SSE 12.7 mph - N/A   Clear
5:53 PM 79.0 °F 50.0 °F 36% 29.94 in 10.0 mi SSE 12.7 mph - N/A   Clear
6:53 PM 75.9 °F 50.0 °F 40% 29.94 in 10.0 mi SE 10.4 mph - N/A   Clear
7:53 PM 72.0 °F 50.0 °F 46% 29.93 in 10.0 mi SE 8.1 mph - N/A   Clear
8:53 PM 71.1 °F 51.1 °F 49% 29.93 in 10.0 mi SE 10.4 mph - N/A   Clear
9:53 PM 70.0 °F 51.1 °F 51% 29.93 in 10.0 mi SE 6.9 mph - N/A   Clear
10:53 PM 70.0 °F 50.0 °F 49% 29.93 in 10.0 mi SE 10.4 mph - N/A   Clear
11:53 PM 68.0 °F 50.0 °F 52% 29.93 in 10.0 mi SSE 9.2 mph - N/A   Clear